Home > Weather > Târgu Mureş > Past weeks

Flag for Romania Past Weather in Târgu Mureş, Romania — Yesterday and Last 2 Weeks

Now
68 °F

Sunny.


Feels Like: 68 °F
Forecast: 64 / 86 °F
Wind: 7 mph from East

Location: Tirgu Mures Airport

Current Time: Jun 26, 2016 at 7:49:52 AM

Latest Report: Jun 26, 2016 at 7:00 AM


Visibility: 10 mi

Pressure: 30.04 "Hg

Humidity: 88%

Dew Point: 64 °F

Location of Târgu MureşLocation

Past Weather in Târgu Mureş — Graph

°F

Târgu Mureş Temperature Yesterday

Maximum temperature yesterday: 90 °F (at 3:30 PM)
Minimum temperature yesterday: 59 °F (at 5:30 AM)
Average temperature yesterday: 76 °F

High & Low Weather Summary for the Past Weeks

 TemperatureHumidityPressure
High91 °F (Jun 21, 4:30 PM)100% (Jun 11, 6:00 AM)30.24 "Hg (Jun 11, 6:00 AM)
Low52 °F (Jun 16, 6:00 AM)41% (Jun 21, 2:30 PM)29.47 "Hg (Jun 14, 5:00 AM)
Average72 °F76%29.94 "Hg
* Reported Jun 11 6:00 AM — Jun 26 6:30 AM, Târgu Mureş, Weather by CustomWeather, © 2016

Note: Actual official high and low records may vary slightly from our data, if they occured in-between our weather recording intervals... More about our weather records

Advertising

Târgu Mureş Weather History for the Previous 24 Hours

Scroll right to see more
 ConditionsComfort  
Time TempWeatherWind HumidityBarometerVisibility
6:30 AM
Sun, Jun 26
66 °FSunny.8 mph94%30.04 "Hg10 mi
6:00 AM66 °FClear.7 mph94%30.04 "Hg10 mi
5:30 AM66 °FClear.3 mph94%30.04 "Hg10 mi
5:00 AM66 °FClear.2 mph94%30.01 "Hg10 mi
4:00 AM66 °FClear.3 mph94%30.01 "Hg10 mi
3:00 AM68 °FClear.No wind94%30.01 "Hg10 mi
2:00 AM68 °FClear.No wind94%30.04 "Hg10 mi
1:00 AM70 °FClear.No wind88%30.01 "Hg10 mi
12:00 AM70 °FClear.No wind88%30.01 "Hg10 mi
11:00 PM
Sat, Jun 25
72 °FClear.1 mph83%29.98 "Hg10 mi
10:00 PM72 °FSunny.No wind88%29.98 "Hg10 mi
9:00 PM77 °FPassing clouds.1 mph74%29.98 "HgN/A
8:30 PM77 °FPassing clouds.3 mph79%29.98 "HgN/A
8:00 PM79 °FScattered showers. Passing clouds.No wind74%29.98 "HgN/A
7:30 PM81 °FPassing clouds.5 mph70%29.98 "HgN/A
7:00 PM82 °FPassing clouds.6 mph62%29.98 "HgN/A
6:30 PM88 °FPassing clouds.6 mph49%29.98 "HgN/A
6:00 PM88 °FPassing clouds.6 mph52%29.98 "HgN/A
5:30 PM88 °FPassing clouds.5 mph52%29.98 "HgN/A
5:00 PM88 °FPassing clouds.3 mph49%30.01 "HgN/A
4:30 PM88 °FPassing clouds.5 mph52%30.01 "HgN/A
4:00 PM88 °FPassing clouds.7 mph52%30.01 "HgN/A
3:30 PM90 °FPassing clouds.2 mph52%30.01 "HgN/A
3:00 PM88 °FPassing clouds.2 mph55%30.04 "HgN/A
2:30 PM88 °FPassing clouds.1 mph55%30.04 "HgN/A
2:00 PM88 °FPassing clouds.1 mph55%30.04 "HgN/A
1:30 PM84 °FPassing clouds.5 mph62%30.07 "HgN/A
1:00 PM84 °FPassing clouds.5 mph62%30.07 "HgN/A
12:30 PM84 °FPassing clouds.5 mph58%30.07 "HgN/A
12:00 PM82 °FPassing clouds.7 mph62%30.07 "HgN/A
11:30 AM81 °FPassing clouds.5 mph70%30.07 "HgN/A
11:00 AM79 °FPassing clouds.6 mph70%30.07 "HgN/A
10:30 AM77 °FPassing clouds.5 mph74%30.09 "HgN/A
10:00 AM75 °FPassing clouds.3 mph74%30.09 "HgN/A
9:30 AM73 °FPassing clouds.3 mph74%30.09 "HgN/A
9:00 AM72 °FSunny.2 mph78%30.09 "Hg10 mi
8:30 AM68 °FPassing clouds.3 mph83%30.09 "HgN/A
8:00 AM68 °FPassing clouds.3 mph83%30.09 "HgN/A
7:30 AM66 °FSunny.5 mph88%30.09 "Hg10 mi
7:00 AM64 °FLight fog.1 mph94%30.09 "Hg5 mi
Weather by CustomWeather, © 2016

See weather overviewHow to use our weather pages